CW1913 Weather Reports


time (UTC)temp
F
wind
direction
speed
knots
gust
knots
rain 1hr
in
rain 24hr
in
rain mn
in
humidity
%
barometer
mb
20260510194120 91 111 1.7 6.1 0.00 0.00 0.00 62 1017.2
20260510193624 90 165 1.7 6.1 0.00 0.00 0.00 63 1017.2
20260510193141 90 229 1.7 7.0 0.00 0.00 0.00 63 1017.2
20260510192618 89 222 1.7 7.0 0.00 0.00 0.00 65 1017.3
20260510192131 88 240 3.5 7.0 0.00 0.00 0.00 65 1017.2
20260510191622 88 186 1.7 6.1 0.00 0.00 0.00 66 1017.3
20260510191145 88 183 1.7 5.2 0.00 0.00 0.00 67 1017.4
20260510190641 87 198 1.7 7.0 0.00 0.00 0.00 68 1017.4
20260510190121 88 260 0.9 8.7 0.00 0.00 0.00 66 1017.4
20260510185625 89 221 1.7 7.8 0.00 0.00 0.00 64 1017.4
20260510185124 91 139 3.5 7.8 0.00 0.00 0.00 62 1017.5
20260510184643 92 231 3.5 7.0 0.00 0.00 0.00 62 1017.4
20260510184137 92 266 2.6 7.8 0.00 0.00 0.00 60 1017.3
20260510183625 92 256 3.5 6.1 0.00 0.00 0.00 59 1017.3
20260510183119 92 281 2.6 7.0 0.00 0.00 0.00 59 1017.3
20260510182620 93 290 4.3 7.0 0.00 0.00 0.00 59 1017.2
20260510182124 92 304 2.6 6.1 0.00 0.00 0.00 59 1017.1
20260510181622 93 252 0.9 6.1 0.00 0.00 0.00 60 1017.2
20260510181119 94 227 2.6 6.1 0.00 0.00 0.00 60 1017.1
20260510180647 94 273 1.7 6.1 0.00 0.00 0.00 60 1017.1
20260510180128 94 238 3.5 7.0 0.00 0.00 0.00 60 1017.3
20260510175622 94 246 2.6 7.8 0.00 0.00 0.00 60 1017.3
20260510175123 94 254 2.6 6.1 0.00 0.00 0.00 61 1017.4
20260510174645 93 228 3.5 7.0 0.00 0.00 0.00 62 1017.4
20260510174132 93 204 2.6 6.1 0.00 0.00 0.00 61 1017.6
20260510173632 93 263 2.6 6.1 0.00 0.00 0.00 61 1017.6
20260510173119 92 242 1.7 4.3 0.00 0.00 0.00 65 1017.8
20260510172619 91 257 2.6 5.2 0.00 0.00 0.00 67 1017.9
20260510172126 91 285 0.9 6.1 0.00 0.00 0.00 69 1017.8
20260510171618 91 261 2.6 6.1 0.00 0.00 0.00 66 1017.9
20260510171118 91 254 1.7 6.1 0.00 0.00 0.00 67 1018.0
20260510170639 91 175 2.6 5.2 0.00 0.00 0.00 66 1018.0
20260510170118 91 260 0.9 5.2 0.00 0.00 0.00 66 1018.1
20260510165621 90 282 1.7 6.1 0.00 0.00 0.00 68 1018.2
20260510165142 90 164 1.7 6.1 0.00 0.00 0.00 68 1018.2
20260510164657 90 262 0.9 3.5 0.00 0.00 0.00 69 1018.3
20260510164116 90 267 0.9 4.3 0.00 0.00 0.00 70 1018.4
20260510163622 89 180 0.9 4.3 0.00 0.00 0.00 70 1018.5
20260510163123 89 263 0.9 2.6 0.00 0.00 0.00 72 1018.5
20260510162622 89 265 0.0 4.3 0.00 0.00 0.00 72 1018.7
20260510162124 89 241 2.6 5.2 0.00 0.00 0.00 70 1018.8
20260510161638 89 260 3.5 5.2 0.00 0.00 0.00 70 1018.9
20260510161121 88 238 3.5 5.2 0.00 0.00 0.00 72 1018.9
20260510160621 89 271 2.6 5.2 0.00 0.00 0.00 72 1018.8
20260510160125 89 294 0.9 5.2 0.00 0.00 0.00 72 1018.7
20260510155646 88 285 1.7 5.2 0.00 0.00 0.00 73 1018.8
20260510155121 88 255 2.6 5.2 0.00 0.00 0.00 72 1018.8
20260510154645 88 242 1.7 4.3 0.00 0.00 0.00 73 1018.8
20260510154124 88 269 0.0 5.2 0.00 0.00 0.00 73 1018.8
20260510153643 88 260 1.7 7.8 0.00 0.00 0.00 73 1018.8
20260510153202 88 227 2.6 7.8 0.00 0.00 0.00 72 1018.9
20260510152616 88 254 1.7 4.3 0.00 0.00 0.00 73 1018.8
20260510152206 89 250 1.7 4.3 0.00 0.00 0.00 72 1018.8
20260510151627 89 254 1.7 5.2 0.00 0.00 0.00 72 1018.8
20260510151124 89 188 1.7 5.2 0.00 0.00 0.00 73 1018.8
20260510150620 88 234 2.6 7.0 0.00 0.00 0.00 73 1018.8
20260510150120 88 186 1.7 7.8 0.00 0.00 0.00 73 1018.8
20260510145616 88 165 2.6 5.2 0.00 0.00 0.00 73 1018.8
20260510145117 88 210 0.9 6.1 0.00 0.00 0.00 74 1018.7
20260510144618 87 227 2.6 6.1 0.00 0.00 0.00 74 1018.7
20260510144139 87 246 2.6 6.1 0.00 0.00 0.00 74 1018.7
20260510143626 86 248 2.6 6.1 0.00 0.00 0.00 75 1018.6
20260510143126 86 201 3.5 6.1 0.00 0.00 0.00 76 1018.7
20260510142621 86 249 1.7 5.2 0.00 0.00 0.00 77 1018.6
20260510142119 85 254 1.7 5.2 0.00 0.00 0.00 78 1018.5
20260510141632 85 236 1.7 4.3 0.00 0.00 0.00 78 1018.4
20260510141132 85 264 1.7 6.1 0.00 0.00 0.00 79 1018.4
20260510140619 84 255 3.5 7.0 0.00 0.00 0.00 79 1018.6
20260510140121 84 186 0.9 4.3 0.00 0.00 0.00 80 1018.5
20260510135621 84 244 0.9 5.2 0.00 0.00 0.00 80 1018.6
20260510135118 83 296 0.9 6.1 0.00 0.00 0.00 81 1018.5
20260510134619 83 171 2.6 6.1 0.00 0.00 0.00 81 1018.4
20260510134142 83 229 1.7 6.1 0.00 0.00 0.00 83 1018.5
20260510133618 82 253 0.9 5.2 0.00 0.00 0.00 84 1018.4
20260510133119 81 244 1.7 4.3 0.00 0.00 0.00 85 1018.4
20260510132622 80 153 0.9 4.3 0.00 0.00 0.00 86 1018.3
20260510132119 80 219 0.9 4.3 0.00 0.00 0.00 88 1018.3
20260510131621 79 201 0.0 3.5 0.00 0.00 0.00 87 1018.4
20260510131124 79 246 0.0 2.6 0.00 0.00 0.00 88 1018.4
20260510130620 78 248 0.9 2.6 0.00 0.00 0.00 88 1018.3
20260510130121 78 189 0.0 3.5 0.00 0.00 0.00 89 1018.3
20260510125620 78 190 0.9 3.5 0.00 0.00 0.00 89 1018.4
20260510125119 77 251 0.9 2.6 0.00 0.00 0.00 90 1018.3
20260510124620 77 252 0.0 2.6 0.00 0.00 0.00 90 1018.3
20260510124119 77 211 0.0 2.6 0.00 0.00 0.00 90 1018.3
20260510123623 76 226 0.0 2.6 0.00 0.00 0.00 91 1018.2
20260510123123 76 226 0.0 0.9 0.00 0.00 0.00 92 1018.2
20260510122639 76 226 0.0 1.7 0.00 0.00 0.00 92 1018.1
20260510122121 75 227 0.0 1.7 0.00 0.00 0.00 93 1018.1
20260510121619 74 226 0.0 0.9 0.00 0.00 0.00 93 1018.0
20260510121121 74 226 0.0 0.9 0.00 0.00 0.00 93 1018.0
20260510120640 74 226 0.0 0.9 0.00 0.00 0.00 94 1017.9
20260510120121 73 226 0.0 3.5 0.00 0.00 0.00 94 1017.9
20260510115641 73 226 0.0 3.5 0.00 0.00 0.00 94 1017.7
20260510115123 73 294 0.0 0.0 0.00 0.00 0.00 94 1017.6
20260510114618 73 294 0.0 0.0 0.00 0.00 0.00 94 1017.6
20260510114119 73 156 0.0 0.0 0.00 0.00 0.00 94 1017.4
20260510113624 73 156 0.0 0.0 0.00 0.00 0.00 94 1017.3
20260510113140 72 156 0.0 0.0 0.00 0.00 0.00 94 1017.1
20260510112630 72 156 0.0 0.0 0.00 0.00 0.00 94 1017.1
20260510112138 72 156 0.0 0.0 0.00 0.00 0.00 94 1017.0
20260510111625 72 156 0.0 0.0 0.00 0.00 0.00 94 1016.8
20260510111124 72 156 0.0 0.0 0.00 0.00 0.00 94 1016.8
20260510110643 72 156 0.0 0.0 0.00 0.00 0.00 94 1016.7
20260510110148 72 156 0.0 0.0 0.00 0.00 0.00 94 1016.6
20260510105644 72 156 0.0 0.0 0.00 0.00 0.00 94 1016.6
20260510105121 72 156 0.0 0.0 0.00 0.00 0.00 94 1016.5
20260510104622 73 156 0.0 0.0 0.00 0.00 0.00 93 1016.5
20260510104138 73 156 0.0 0.0 0.00 0.00 0.00 93 1016.6
20260510103637 73 156 0.0 0.0 0.00 0.00 0.00 93 1016.5
20260510103120 73 156 0.0 0.0 0.00 0.00 0.00 93 1016.4
20260510102617 73 156 0.0 0.0 0.00 0.00 0.00 93 1016.3
20260510102118 73 156 0.0 0.9 0.00 0.00 0.00 93 1016.2
20260510101624 73 156 0.0 0.9 0.00 0.00 0.00 93 1016.1
20260510101142 73 156 0.0 0.0 0.00 0.00 0.00 93 1016.1
20260510100632 73 156 0.0 0.0 0.00 0.00 0.00 93 1015.9
20260510100146 73 156 0.0 0.0 0.00 0.00 0.00 93 1015.9
20260510095626 73 156 0.0 0.0 0.00 0.00 0.00 93 1015.9
20260510095126 73 156 0.0 0.0 0.00 0.00 0.00 93 1015.9
20260510094623 73 156 0.0 0.0 0.00 0.00 0.00 93 1015.9
20260510094146 73 156 0.0 0.9 0.00 0.00 0.00 93 1015.9
20260510093617 73 156 0.0 0.9 0.00 0.00 0.00 93 1015.8
20260510093118 73 156 0.0 0.9 0.00 0.00 0.00 93 1015.7
20260510092642 73 156 0.0 1.7 0.00 0.00 0.00 93 1015.6
20260510092205 73 156 0.0 0.9 0.00 0.00 0.00 93 1015.7
20260510091616 73 156 0.0 0.9 0.00 0.00 0.00 93 1015.6
20260510091130 73 156 0.0 1.7 0.00 0.00 0.00 93 1015.6
20260510090631 73 156 0.0 1.7 0.00 0.00 0.00 93 1015.5
20260510090118 73 156 0.0 0.9 0.00 0.00 0.00 93 1015.6
20260510085618 73 156 0.0 0.9 0.00 0.00 0.00 93 1015.5
20260510085118 74 156 0.0 0.9 0.00 0.00 0.00 93 1015.4
20260510084619 73 156 0.0 0.0 0.00 0.00 0.00 93 1015.4
20260510084138 74 156 0.0 1.7 0.00 0.00 0.00 94 1015.2
20260510083626 73 156 0.0 1.7 0.00 0.00 0.00 93 1015.1
20260510083145 74 156 0.0 0.9 0.00 0.00 0.00 93 1015.1
20260510082703 73 156 0.0 0.9 0.00 0.00 0.00 93 1015.2
20260510082129 73 156 0.0 0.9 0.00 0.00 0.00 93 1015.2
20260510081622 73 155 0.0 0.0 0.00 0.00 0.00 93 1015.1
20260510081118 73 155 0.0 0.0 0.00 0.00 0.00 93 1015.1
20260510080635 74 155 0.0 0.9 0.00 0.00 0.00 93 1015.2
20260510080117 74 155 0.0 0.9 0.00 0.00 0.00 93 1015.3
20260510075622 73 155 0.0 0.0 0.00 0.00 0.00 93 1015.4
20260510075125 74 156 0.0 0.9 0.00 0.00 0.00 93 1015.4
20260510074622 73 156 0.0 0.9 0.00 0.00 0.00 93 1015.4
20260510074122 73 156 0.0 0.9 0.00 0.00 0.00 93 1015.4
20260510073619 73 156 0.0 0.9 0.00 0.00 0.00 93 1015.4
20260510073144 73 156 0.0 0.0 0.00 0.00 0.00 93 1015.5
20260510072619 73 156 0.0 0.0 0.00 0.00 0.00 93 1015.6
20260510072133 73 156 0.0 0.0 0.00 0.00 0.00 93 1015.7
20260510071622 73 156 0.0 0.0 0.00 0.00 0.00 93 1015.7
20260510071200 73 156 0.0 0.0 0.00 0.00 0.00 93 1015.6
20260510070616 73 156 0.0 0.0 0.00 0.00 0.00 93 1015.6
20260510070121 73 156 0.0 1.7 0.00 0.00 0.00 93 1015.6
20260510065619 73 156 0.0 1.7 0.00 0.00 0.00 93 1015.7
20260510065122 73 155 0.0 1.7 0.00 0.00 0.00 93 1015.7
20260510064626 73 155 0.0 1.7 0.00 0.00 0.00 93 1015.7
20260510064122 73 26 0.0 0.0 0.00 0.00 0.00 93 1015.6
20260510063622 73 26 0.0 0.0 0.00 0.00 0.00 93 1015.9
20260510063143 73 26 0.0 0.0 0.00 0.00 0.00 93 1016.1
20260510062619 73 26 0.0 0.0 0.00 0.00 0.00 93 1016.2
20260510062117 73 26 0.0 0.0 0.00 0.00 0.00 92 1016.4
20260510061616 73 26 0.0 0.0 0.00 0.00 0.00 92 1016.4
20260510061146 73 26 0.0 0.0 0.00 0.00 0.00 92 1016.4
20260510060640 73 26 0.0 0.0 0.00 0.00 0.00 92 1016.5
20260510060120 74 26 0.0 0.0 0.00 0.00 0.00 92 1016.4
20260510055641 74 26 0.0 0.0 0.00 0.00 0.00 92 1016.3
20260510055131 74 26 0.0 0.0 0.00 0.00 0.00 92 1016.5
20260510054646 74 26 0.0 0.0 0.00 0.00 0.00 92 1016.7
20260510054132 74 26 0.0 0.0 0.00 0.00 0.00 92 1016.8
20260510053637 74 26 0.0 0.0 0.00 0.00 0.00 92 1016.8
20260510053120 74 26 0.0 0.0 0.00 0.00 0.00 92 1016.8
20260510052625 74 26 0.0 0.0 0.00 0.00 0.00 91 1016.9
20260510052125 74 26 0.0 0.0 0.00 0.00 0.00 91 1016.9
20260510051641 74 26 0.0 0.0 0.00 0.00 0.00 91 1017.0
20260510051130 75 26 0.0 0.0 0.00 0.00 0.00 91 1017.0
20260510050628 75 26 0.0 0.0 0.00 0.00 0.00 91 1017.1
20260510050151 75 26 0.0 0.0 0.00 0.00 0.00 91 1017.0
20260510045626 75 26 0.0 0.0 0.00 0.00 0.00 90 1017.0
20260510045118 75 26 0.0 0.0 0.00 0.00 0.00 90 1017.0
20260510044618 75 26 0.0 0.0 0.00 0.00 0.00 90 1017.1
20260510044121 75 26 0.0 0.0 0.00 0.00 0.00 90 1017.3
20260510043620 75 26 0.0 0.9 0.00 0.00 0.00 90 1017.2
20260510043124 75 26 0.0 0.9 0.00 0.00 0.00 90 1017.3
20260510042619 75 26 0.0 0.9 0.00 0.00 0.00 90 1017.3
20260510042122 75 26 0.0 0.9 0.00 0.00 0.00 89 1017.3
20260510041619 75 26 0.0 0.9 0.00 0.00 0.00 89 1017.2
20260510041117 75 26 0.0 0.0 0.00 0.00 0.00 89 1017.3
20260510040640 75 26 0.0 0.0 0.00 0.00 0.00 89 1017.3
20260510040122 75 26 0.0 0.0 0.00 0.00 0.00 89 1017.3
20260510035627 74 26 0.0 0.0 0.00 0.00 0.00 89 1017.4
20260510035123 74 26 0.0 0.0 0.00 0.00 0.00 89 1017.4
20260510034619 74 26 0.0 0.0 0.00 0.00 0.00 89 1017.3
20260510034139 74 26 0.0 0.0 0.00 0.00 0.00 89 1017.4
20260510033701 74 26 0.0 0.0 0.00 0.00 0.00 89 1017.5
20260510033127 74 26 0.0 0.0 0.00 0.00 0.00 89 1017.4
20260510032647 74 26 0.0 0.0 0.00 0.00 0.00 88 1017.4
20260510032142 74 26 0.0 0.0 0.00 0.00 0.00 88 1017.3
20260510031620 74 26 0.0 0.0 0.00 0.00 0.00 88 1017.1
20260510031117 74 26 0.0 0.0 0.00 0.00 0.00 88 1017.2
20260510030640 74 26 0.0 0.0 0.00 0.00 0.00 88 1017.2
20260510030127 75 26 0.0 0.0 0.00 0.00 0.00 88 1017.3
20260510025625 75 26 0.0 0.0 0.00 0.00 0.00 88 1017.1
20260510025115 75 26 0.0 0.0 0.00 0.00 0.00 88 1017.0
20260510024622 75 26 0.0 0.0 0.00 0.00 0.00 87 1017.0
20260510024142 75 26 0.0 0.0 0.00 0.00 0.00 87 1016.9
20260510023639 75 26 0.0 0.0 0.00 0.00 0.00 87 1017.0
20260510023129 75 26 0.0 0.0 0.00 0.00 0.00 87 1016.9
20260510022630 75 26 0.0 0.0 0.00 0.00 0.00 87 1016.8
20260510022135 75 26 0.0 0.0 0.00 0.00 0.00 87 1016.8
20260510021619 75 26 0.0 0.0 0.00 0.00 0.00 86 1016.8
20260510021140 76 26 0.0 0.0 0.00 0.00 0.00 86 1016.8
20260510020622 76 26 0.0 0.0 0.00 0.00 0.00 86 1016.7
20260510020125 76 26 0.0 0.0 0.00 0.00 0.00 86 1016.6
20260510015642 76 26 0.0 0.0 0.00 0.00 0.00 86 1016.6
20260510015137 76 26 0.0 0.9 0.00 0.00 0.00 85 1016.6
20260510014625 76 26 0.0 0.9 0.00 0.00 0.00 85 1016.6
20260510014123 76 26 0.0 1.7 0.00 0.00 0.00 85 1016.6
20260510013622 76 26 0.0 2.6 0.00 0.00 0.00 85 1016.5
20260510013120 76 26 0.0 4.3 0.00 0.00 0.00 86 1016.4
20260510012641 76 26 2.6 4.3 0.00 0.00 0.00 85 1016.3
20260510012137 77 11 0.0 3.5 0.00 0.00 0.00 85 1016.3
20260510011622 77 11 0.9 3.5 0.00 0.00 0.00 85 1016.3
20260510011143 77 11 0.0 2.6 0.00 0.00 0.00 85 1016.2
20260510010619 77 11 0.0 2.6 0.00 0.00 0.00 85 1016.2
20260510010127 77 11 0.9 2.6 0.00 0.00 0.00 85 1016.2
20260510005628 77 11 0.9 2.6 0.00 0.00 0.00 85 1016.2
20260510005149 77 5 0.9 5.2 0.00 0.00 0.00 85 1016.1
20260510004626 77 5 0.0 5.2 0.00 0.00 0.00 85 1016.0
20260510004145 77 21 0.0 1.7 0.00 0.00 0.00 84 1015.8
20260510003641 77 21 0.0 2.6 0.00 0.00 0.00 84 1015.8
20260510003120 77 21 0.9 4.3 0.00 0.00 0.00 84 1015.8
20260510002617 77 5 1.7 6.1 0.00 0.00 0.00 83 1015.8
20260510002138 77 30 1.7 7.0 0.00 0.00 0.00 84 1015.7
20260510001628 78 28 2.6 8.7 0.00 0.00 0.00 84 1015.6
20260510001125 78 40 2.6 8.7 0.00 0.00 0.00 84 1015.6
20260510000625 78 28 0.0 4.3 0.00 0.00 0.00 85 1015.5
20260510000122 78 28 1.7 6.1 0.00 0.00 0.00 84 1015.5
20260509235639 79 5 1.7 9.6 0.00 0.00 0.00 84 1015.4
20260509235139 79 25 3.5 9.6 0.00 0.00 0.00 85 1015.2
20260509234616 80 23 3.5 7.0 0.00 0.00 0.00 85 1015.2
20260509234117 80 27 1.7 7.0 0.00 0.00 0.00 85 1015.1
20260509233618 81 26 2.6 9.6 0.00 0.00 0.00 85 1015.0
20260509233119 81 17 1.7 6.1 0.00 0.00 0.00 85 1015.0
20260509232639 82 10 2.6 7.8 0.00 0.00 0.00 83 1015.0
20260509232141 83 15 3.5 7.8 0.00 0.00 0.00 79 1014.9
20260509231625 83 5 0.9 3.5 0.00 0.00 0.00 75 1014.9
20260509231146 83 13 0.9 2.6 0.00 0.00 0.00 75 1014.8
20260509230629 84 15 0.0 6.1 0.00 0.00 0.00 75 1014.7
20260509230129 84 15 0.9 6.1 0.00 0.00 0.00 75 1014.7
20260509225646 84 336 0.9 4.3 0.00 0.00 0.00 74 1014.6
20260509225123 84 36 0.0 2.6 0.00 0.00 0.00 74 1014.6
20260509224642 85 339 0.9 2.6 0.00 0.00 0.00 74 1014.6
20260509224121 85 333 0.0 4.3 0.00 0.00 0.00 73 1014.5
20260509223622 85 333 0.9 5.2 0.00 0.00 0.00 72 1014.4
20260509223119 85 13 0.9 5.2 0.00 0.00 0.00 71 1014.3
20260509222619 86 346 0.9 4.3 0.00 0.00 0.00 71 1014.1
20260509222152 86 360 0.0 2.6 0.00 0.00 0.00 70 1014.2
20260509221643 87 360 0.9 6.1 0.00 0.00 0.00 69 1014.1
20260509221121 88 319 1.7 6.1 0.00 0.00 0.00 68 1014.1
20260509220621 88 305 0.0 2.6 0.00 0.00 0.00 65 1014.0
20260509220122 88 301 0.9 2.6 0.00 0.00 0.00 65 1013.9
20260509215622 88 300 0.0 2.6 0.00 0.00 0.00 65 1013.9
20260509215123 88 316 0.9 3.5 0.00 0.00 0.00 65 1013.9
20260509214622 89 321 0.9 3.5 0.00 0.00 0.00 64 1013.8
20260509214119 89 308 0.9 2.6 0.00 0.00 0.00 63 1013.7
20260509213642 89 315 0.0 5.2 0.00 0.00 0.00 63 1013.7
20260509213121 89 306 0.0 3.5 0.00 0.00 0.00 63 1013.5
20260509212625 89 310 0.0 3.5 0.00 0.00 0.00 63 1013.5
20260509212132 90 253 0.9 2.6 0.00 0.00 0.00 64 1013.5
20260509211640 90 243 0.9 3.5 0.00 0.00 0.00 64 1013.4
20260509211120 90 269 0.0 3.5 0.00 0.00 0.00 64 1013.5
20260509210619 89 261 0.9 2.6 0.00 0.00 0.00 65 1013.5
20260509210206 89 262 0.9 2.6 0.00 0.00 0.00 65 1013.5
20260509205701 89 261 0.9 6.1 0.00 0.00 0.00 65 1013.5
20260509205113 89 254 1.7 6.1 0.00 0.00 0.00 64 1013.6
20260509204634 89 248 0.9 6.1 0.00 0.00 0.00 64 1013.6
20260509204130 89 240 0.9 5.2 0.00 0.00 0.00 65 1013.6
20260509203701 89 235 1.7 5.2 0.00 0.00 0.00 65 1013.5
20260509203117 89 238 0.9 4.3 0.00 0.00 0.00 66 1013.6
20260509202641 88 261 0.9 3.5 0.00 0.00 0.00 67 1013.5
20260509202204 88 262 0.9 3.5 0.00 0.00 0.00 68 1013.5
20260509201646 88 252 1.7 3.5 0.00 0.00 0.00 69 1013.5
20260509201133 87 252 0.9 3.5 0.00 0.00 0.00 69 1013.6
20260509200631 87 253 0.0 3.5 0.00 0.00 0.00 69 1013.7
20260509200130 86 261 1.7 3.5 0.00 0.00 0.00 69 1013.8
20260509195627 86 263 0.9 2.6 0.00 0.00 0.00 70 1013.7
20260509195124 86 263 0.0 0.0 0.00 0.00 0.00 71 1013.7
20260509194642 86 263 0.0 0.0 0.00 0.00 0.00 72 1013.8